Weather in Malyagurt

Russia / Udmurt Republic     57°32′10″N   52°32′44″E
temp.,
°C
wind,
m/s
gust,
m/s
humid.,
%
clouds,
%
prec.,
mm/h
press.,
hPa
HPBL,
m
20 january, thu
thu2001:00−7w2597100 0.8 1014200
04:00−9wsw379797 1.2 1015276
07:00−17s2510099 0.0 101774
10:00−16s299983 0.1 1017193
13:00−10ssw4129091 0.0 1016424
16:00−8ssw51392100 0.0 1015574
19:00−7ssw51391100 0.1 1015686
22:00−7ssw51392100 0.1 1014657
21 january, fri
fri2101:00−7ssw51492100 0.1 1015614
04:00−8ssw41292100 0.1 1016524
07:00−9ssw4119299 0.0 1017440
10:00−10ssw4119291 0.0 1018397
13:00−9ssw41189100 0.0 1019414
16:00−9s3990100 0.0 1020343
19:00−12sse389487 0.0 1022183
22:00−13sse2896100 0.0 1022172
22 january, sat
sat2201:00−13se2896100 0.0 1023183
04:00−12se399699 0.0 1023200
07:00−12se3109550 0.0 1023217
10:00−12se311935 0.0 1025272
13:00−9sse3108695 0.0 1025322
16:00−9se389382 0.0 1026286
19:00−10se3994100 0.0 1027252
22:00−10se2893100 0.0 1028258
23 january, sun
sun2301:00−9se2795100 0.3 1029248
04:00−11se2696100 0.3 1030134
07:00−12ese259792 0.0 1032122
10:00−11se2695100 0.1 1033148
13:00−7sse2490100 0.0 1034216
16:00−7sse2596100 0.5 1035237
19:00−10se2595100 0.1 1037107
22:00−12se1296100 0.1 103830
24 january, mon
mon2401:00−11ese1295100 0.0 103934
04:00−10ese1291100 0.0 103946
07:00−11ese1293100 0.0 103938
10:00−11se1291100 0.0 104049
13:00−6sse1382100 0.0 1039143
16:00−8se1195100 0.0 103810
19:00−11sse2395100 0.0 103846
22:00−12sse2594100 0.0 103764